Weather History for KASX - March, 2013

Change the Weather History Date:

Monday, March 18, 2013

  Actual Average Record
Temperature  
Mean Temperature 26 °F -  
Max Temperature 32 °F 39 °F 82 °F (2012)
Min Temperature 19 °F 16 °F -15 °F (1955)
Degree Days  
Heating Degree Days 40    
Moisture  
Dew Point 20 °F    
Average Humidity 79    
Maximum Humidity 88    
Minimum Humidity 53    
Precipitation  
Precipitation 0.00 in - - ()
Sea Level Pressure  
Sea Level Pressure 29.61 in    
Wind  
Wind Speed 8 mph (SW)    
Max Wind Speed 16 mph    
Max Gust Speed 24 mph    
Visibility 4 miles    
Events Snow    
Averages and records for this station are not official NWS values.
T = Trace of Precipitation, MM = Missing Value Source: NWS Daily Summary

Daily Weather History Graph

Daily Weather History Graph

Search for Another Location

Airport or City:

Trip Planner

Search our weather history database for the weather conditions in past years. The results will help you decide how hot, cold, wet, or windy it might be!

Date:

Astronomy

Mar. 18, 2013 Rise Set
Actual Time 7:10 AM CDT 7:13 PM CDT
Civil Twilight 6:40 AM CDT 7:44 PM CDT
Nautical Twilight 6:04 AM CDT 8:19 PM CDT
Astronomical Twilight 5:28 AM CDT 8:55 PM CDT
Moon 10:49 AM CDT (3/18) 1:33 AM CDT (3/18)
Length of Visible Light 13h 04m
Length of Day
12h 03m
Waxing Crescent, 41% of the Moon is Illuminated
Mar 18
Waxing Crescent
Mar 19
First Quarter
Mar 27
Full
Apr 2
Last Quarter
Apr 10
New

Hourly Weather History & Observations

Time (CDT) Temp. Windchill Dew Point Humidity Pressure Visibility Wind Dir Wind Speed Gust Speed Precip Events Conditions
12:53 AM 23.0 °F 13.9 °F 8.1 °F 53% 29.99 in 10.0 mi South 8.1 mph - N/A   Overcast
1:53 AM 21.9 °F 13.4 °F 10.9 °F 63% 29.97 in 10.0 mi South 6.9 mph - N/A   Overcast
2:53 AM 21.9 °F 17.2 °F 12.0 °F 66% 29.94 in 10.0 mi Variable 3.5 mph - N/A   Overcast
3:53 AM 23.0 °F 17.0 °F 12.9 °F 65% 29.89 in 10.0 mi SE 4.6 mph - N/A   Overcast
4:53 AM 21.9 °F 14.5 °F 14.0 °F 72% 29.84 in 10.0 mi Variable 5.8 mph - N/A   Overcast
5:53 AM 24.1 °F 17.0 °F 15.1 °F 69% 29.82 in 10.0 mi South 5.8 mph - N/A   Overcast
6:53 AM 24.1 °F 18.2 °F 17.1 °F 75% 29.80 in 10.0 mi Variable 4.6 mph - N/A   Overcast
7:10 AM 24.8 °F 17.9 °F 17.6 °F 74% 29.74 in 10.0 mi South 5.8 mph - N/A   Overcast
7:42 AM 24.8 °F 17.9 °F 17.6 °F 74% 29.72 in 10.0 mi Variable 5.8 mph - N/A   Overcast
7:53 AM 25.0 °F 17.1 °F 18.0 °F 75% 29.76 in 10.0 mi Variable 6.9 mph - N/A   Overcast
8:15 AM 24.8 °F 16.9 °F 17.6 °F 74% 29.71 in 2.0 mi SSE 6.9 mph - 0.00 in Snow Light Snow
8:22 AM 24.8 °F 19.1 °F 19.4 °F 80% 29.71 in 1.2 mi Variable 4.6 mph 16.1 mph 0.00 in Snow Light Snow
8:35 AM 24.8 °F 20.5 °F 19.4 °F 80% 29.70 in 0.8 mi South 3.5 mph - 0.00 in Snow Light Snow
8:53 AM 25.0 °F 17.1 °F 19.9 °F 81% 29.74 in 0.8 mi SSE 6.9 mph - 0.00 in Snow Light Snow
9:14 AM 24.8 °F 16.1 °F 21.2 °F 86% 29.68 in 1.2 mi SSE 8.1 mph - 0.00 in Snow Light Snow
9:22 AM 24.8 °F 19.1 °F 21.2 °F 86% 29.68 in 2.0 mi Variable 4.6 mph - 0.00 in Snow Light Snow
9:31 AM 26.6 °F 22.6 °F 21.2 °F 80% 29.68 in 4.0 mi Variable 3.5 mph - 0.00 in Snow Light Snow
9:53 AM 26.1 °F 19.4 °F 19.9 °F 78% 29.71 in 8.0 mi SSE 5.8 mph - 0.00 in Snow Light Snow
10:53 AM 28.0 °F 20.8 °F 19.9 °F 72% 29.68 in 10.0 mi Variable 6.9 mph 16.1 mph 0.00 in   Overcast
11:53 AM 30.0 °F 21.7 °F 21.0 °F 69% 29.65 in 9.0 mi South 9.2 mph - 0.00 in   Overcast
12:53 PM 30.9 °F 24.3 °F 23.0 °F 72% 29.61 in 4.0 mi South 6.9 mph - N/A   Haze
1:01 PM 30.2 °F 22.6 °F 23.0 °F 75% 29.57 in 4.0 mi South 8.1 mph - N/A   Haze
1:42 PM 30.2 °F 23.4 °F 24.8 °F 80% 29.55 in 1.8 mi South 6.9 mph - 0.00 in Snow Light Snow
1:53 PM 30.9 °F 23.5 °F 25.0 °F 79% 29.58 in 1.2 mi South 8.1 mph - 0.00 in Snow Light Snow
2:12 PM 30.2 °F 25.4 °F 26.6 °F 86% 29.54 in 0.8 mi Variable 4.6 mph - 0.00 in Snow Light Snow
2:53 PM 30.0 °F 24.1 °F 27.0 °F 88% 29.56 in 0.8 mi South 5.8 mph - 0.00 in Snow Light Snow
3:06 PM 30.2 °F 25.4 °F 26.6 °F 86% 29.52 in 0.8 mi South 4.6 mph - 0.00 in Snow Light Snow
3:10 PM 30.2 °F 24.3 °F 26.6 °F 86% 29.52 in 1.0 mi South 5.8 mph - 0.00 in Snow Light Snow
3:16 PM 30.2 °F 25.4 °F 26.6 °F 86% 29.52 in 1.0 mi Variable 4.6 mph - 0.00 in Snow Light Snow
3:24 PM 30.2 °F 24.3 °F 26.6 °F 86% 29.51 in 0.8 mi South 5.8 mph - 0.00 in Snow Light Snow
3:37 PM 30.2 °F 23.4 °F 26.6 °F 86% 29.51 in 1.0 mi South 6.9 mph - 0.00 in Snow Light Snow
3:53 PM 30.9 °F 26.2 °F 27.0 °F 85% 29.55 in 2.0 mi Variable 4.6 mph - 0.00 in Snow Light Snow
4:00 PM 30.2 °F 24.3 °F 26.6 °F 86% 29.51 in 2.0 mi South 5.8 mph - 0.00 in Snow Light Snow
4:21 PM 32.0 °F 24.8 °F 26.6 °F 80% 29.50 in 4.0 mi SSW 8.1 mph - 0.00 in   Haze
4:51 PM 30.2 °F 21.9 °F 24.8 °F 80% 29.50 in 2.5 mi SSW 9.2 mph - 0.00 in Snow Light Snow
4:53 PM 30.9 °F 23.5 °F 24.1 °F 76% 29.54 in 2.0 mi SSW 8.1 mph - 0.00 in Snow Light Snow
5:03 PM 30.2 °F 23.4 °F 24.8 °F 80% 29.50 in 1.5 mi SW 6.9 mph - 0.00 in Snow Light Snow
5:15 PM 30.2 °F 22.6 °F 26.6 °F 86% 29.50 in 1.2 mi WSW 8.1 mph - 0.00 in Snow Light Snow
5:53 PM 27.0 °F 16.1 °F 21.0 °F 78% 29.55 in 1.8 mi WSW 12.7 mph - 0.00 in Snow Light Snow
5:59 PM 26.6 °F 15.2 °F 21.2 °F 80% 29.51 in 3.0 mi WSW 13.8 mph - 0.00 in Snow Light Snow
6:10 PM 26.6 °F 15.7 °F 21.2 °F 80% 29.52 in 1.8 mi WSW 12.7 mph - 0.00 in Snow Light Snow
6:15 PM 26.6 °F 16.8 °F 21.2 °F 80% 29.52 in 0.8 mi WSW 10.4 mph - 0.00 in Snow Light Snow
6:24 PM 26.6 °F 14.7 °F 21.2 °F 80% 29.52 in 0.8 mi WSW 15.0 mph - 0.00 in Snow Light Snow
6:35 PM 24.8 °F 12.9 °F 19.4 °F 80% 29.52 in 1.5 mi WSW 13.8 mph - 0.00 in Snow Light Snow
6:53 PM 24.1 °F 11.0 °F 19.0 °F 81% 29.57 in 0.8 mi WSW 16.1 mph 21.9 mph 0.00 in Snow Light Snow
7:02 PM 24.8 °F 14.0 °F 17.6 °F 74% 29.53 in 1.2 mi WSW 11.5 mph - 0.00 in Snow Light Snow
7:09 PM 24.8 °F 12.4 °F 17.6 °F 74% 29.53 in 3.0 mi WSW 15.0 mph 20.7 mph 0.00 in Snow Light Snow
7:19 PM 23.0 °F 9.6 °F 17.6 °F 80% 29.54 in 4.0 mi WSW 16.1 mph 21.9 mph 0.00 in Snow Light Snow
7:34 PM 21.2 °F 7.3 °F 17.6 °F 86% 29.54 in 2.0 mi WSW 16.1 mph 24.2 mph 0.00 in Snow Light Snow
7:40 PM 21.2 °F 8.9 °F 17.6 °F 86% 29.54 in 1.8 mi WSW 12.7 mph 24.2 mph 0.00 in Snow Light Snow
7:48 PM 21.2 °F 7.3 °F 17.6 °F 86% 29.54 in 2.5 mi WSW 16.1 mph 20.7 mph 0.00 in Snow Light Snow
7:53 PM 21.9 °F 8.7 °F 17.1 °F 82% 29.58 in 3.0 mi WSW 15.0 mph 20.7 mph 0.00 in Snow Light Snow
8:17 PM 21.2 °F 8.3 °F 15.8 °F 80% 29.54 in 9.0 mi WSW 13.8 mph 21.9 mph 0.00 in   Overcast
8:53 PM 21.0 °F 8.6 °F 12.9 °F 71% 29.58 in 9.0 mi WSW 12.7 mph 23.0 mph 0.00 in   Overcast
9:18 PM 19.4 °F 7.2 °F 15.8 °F 86% 29.54 in 1.8 mi WSW 11.5 mph - 0.00 in Snow Light Snow
9:22 PM 19.4 °F 5.5 °F 15.8 °F 86% 29.54 in 2.0 mi WSW 15.0 mph - 0.00 in Snow Light Snow
9:35 PM 19.4 °F 7.9 °F 14.0 °F 80% 29.54 in 3.0 mi SW 10.4 mph - 0.00 in Snow Light Snow
9:53 PM 19.9 °F 7.3 °F 14.0 °F 78% 29.58 in 3.0 mi WSW 12.7 mph 18.4 mph 0.00 in Snow Light Snow
10:01 PM 19.4 °F 6.0 °F 14.0 °F 80% 29.54 in 2.5 mi WSW 13.8 mph - 0.00 in Snow Light Snow
10:53 PM 19.9 °F 8.6 °F 15.1 °F 81% 29.57 in 1.8 mi WSW 10.4 mph - 0.00 in Snow Light Snow
11:10 PM 19.4 °F 7.2 °F 15.8 °F 86% 29.53 in 2.0 mi WSW 11.5 mph - 0.00 in Snow Light Snow
11:30 PM 19.4 °F 6.6 °F 15.8 °F 86% 29.53 in 2.0 mi WSW 12.7 mph - 0.00 in Snow Light Snow
11:50 PM 19.4 °F 7.9 °F 15.8 °F 86% 29.53 in 1.5 mi WSW 10.4 mph - 0.00 in Snow Light Snow
11:53 PM 19.9 °F 7.9 °F 16.0 °F 85% 29.57 in 1.5 mi WSW 11.5 mph - 0.00 in Snow Light Snow